• In Hungary
  • List of Countries
  • For 7 days
  • Water Temperature
  • Satellite Maps
  • Weather Map
  • News
  • Weather Widgets
  • user-avatar
    Login

    Hourly Weather Medvedkovo

    Today, 26 May, Saturday

    Time Temperature Precipitation Wind Pressure Humidity
    00:00 +10°C° 0 mm 1 mps 761 mmHg 72%
    01:00 +9°C° 0 mm 1 mps 761 mmHg 73%
    02:00 +8°C° 0 mm 1 mps 761 mmHg 76%
    03:00 +9°C° 0 mm 1 mps 761 mmHg 74%
    04:00 +10°C° 0 mm 1 mps 762 mmHg 71%
    05:00 +10°C° 0 mm 2 mps 762 mmHg 69%
    06:00 +13°C° 0 mm 2 mps 762 mmHg 62%
    07:00 +15°C° 0 mm 2 mps 762 mmHg 56%
    08:00 +17°C° 0 mm 2 mps 762 mmHg 48%
    09:00 +19°C° 0 mm 2 mps 762 mmHg 45%
    10:00 +20°C° 0 mm 3 mps 762 mmHg 42%
    11:00 +21°C° 0 mm 3 mps 762 mmHg 38%
    12:00 +22°C° 0 mm 3 mps 761 mmHg 38%
    13:00 +22°C° 0 mm 3 mps 761 mmHg 37%
    14:00 +24°C° 0 mm 3 mps 761 mmHg 37%
    15:00 +22°C° 0 mm 3 mps 760 mmHg 39%
    16:00 +22°C° 0 mm 3 mps 760 mmHg 41%
    17:00 +22°C° 0 mm 3 mps 759 mmHg 43%
    18:00 +20°C° 0 mm 2 mps 759 mmHg 52%
    19:00 +18°C° 0 mm 2 mps 759 mmHg 60%
    20:00 +16°C° 0 mm 2 mps 759 mmHg 69%
    21:00 +15°C° 0 mm 2 mps 759 mmHg 70%
    22:00 +14°C° 0 mm 2 mps 759 mmHg 72%
    23:00 +13°C° 0 mm 2 mps 758 mmHg 73%

    Tomorrow, 27 May, Sunday

    Time Temperature Precipitation Wind Pressure Humidity
    00:00 +13°C° 0 mm 2 mps 758 mmHg 73%
    01:00 +12°C° 0 mm 3 mps 758 mmHg 73%
    02:00 +12°C° 0 mm 3 mps 758 mmHg 73%
    03:00 +13°C° 0 mm 3 mps 757 mmHg 73%
    04:00 +13°C° 0 mm 3 mps 757 mmHg 73%
    05:00 +13°C° 0 mm 4 mps 757 mmHg 73%
    06:00 +15°C° 0 mm 4 mps 756 mmHg 69%
    07:00 +18°C° 0 mm 4 mps 756 mmHg 64%
    08:00 +20°C° 0 mm 4 mps 756 mmHg 60%
    09:00 +21°C° 0 mm 5 mps 755 mmHg 56%
    10:00 +22°C° 0 mm 5 mps 755 mmHg 51%
    11:00 +25°C° 0 mm 5 mps 755 mmHg 47%
    12:00 +23°C° 0.2 mm 5 mps 754 mmHg 47%
    13:00 +23°C° 0.2 mm 5 mps 754 mmHg 47%
    14:00 +23°C° 0.2 mm 5 mps 754 mmHg 47%
    15:00 +22°C° 0.1 mm 5 mps 754 mmHg 43%
    16:00 +22°C° 0.1 mm 5 mps 754 mmHg 40%
    17:00 +21°C° 0.1 mm 4 mps 754 mmHg 37%
    18:00 +19°C° 0 mm 4 mps 755 mmHg 40%
    19:00 +17°C° 0 mm 3 mps 756 mmHg 43%
    20:00 +13°C° 0 mm 3 mps 756 mmHg 46%
    21:00 +12°C° 0 mm 3 mps 757 mmHg 46%
    22:00 +10°C° 0 mm 2 mps 758 mmHg 45%
    23:00 +9°C° 0 mm 2 mps 758 mmHg 45%

    Day after tomorrow, 28 May, Monday

    Time Temperature Precipitation Wind Pressure Humidity
    00:00 +8°C° 0 mm 2 mps 759 mmHg 48%
    01:00 +7°C° 0 mm 2 mps 760 mmHg 51%
    02:00 +6°C° 0 mm 2 mps 760 mmHg 55%
    03:00 +7°C° 0 mm 2 mps 761 mmHg 55%
    04:00 +8°C° 0 mm 1 mps 761 mmHg 54%
    05:00 +9°C° 0 mm 1 mps 761 mmHg 54%
    06:00 +9°C° 0 mm 2 mps 762 mmHg 48%
    07:00 +12°C° 0 mm 2 mps 762 mmHg 42%
    08:00 +14°C° 0 mm 2 mps 762 mmHg 36%
    09:00 +15°C° 0 mm 2 mps 762 mmHg 34%
    10:00 +16°C° 0 mm 2 mps 762 mmHg 31%
    11:00 +17°C° 0 mm 2 mps 762 mmHg 29%
    12:00 +18°C° 0 mm 2 mps 761 mmHg 29%
    13:00 +19°C° 0 mm 2 mps 761 mmHg 29%
    14:00 +20°C° 0 mm 2 mps 761 mmHg 29%
    15:00 +20°C° 0 mm 2 mps 761 mmHg 31%
    16:00 +20°C° 0 mm 2 mps 760 mmHg 32%
    17:00 +20°C° 0 mm 2 mps 760 mmHg 34%
    18:00 +18°C° 0 mm 2 mps 760 mmHg 42%
    19:00 +16°C° 0 mm 1 mps 760 mmHg 50%
    20:00 +14°C° 0 mm 1 mps 760 mmHg 57%
    21:00 +13°C° 0 mm 1 mps 760 mmHg 58%
    22:00 +12°C° 0 mm 1 mps 760 mmHg 59%
    23:00 +10°C° 0 mm 2 mps 760 mmHg 61%

    29 May, Tuesday

    Time Temperature Precipitation Wind Pressure Humidity
    00:00 +10°C° 0 mm 2 mps 760 mmHg 62%
    01:00 +9°C° 0 mm 2 mps 760 mmHg 63%
    02:00 +9°C° 0 mm 2 mps 760 mmHg 64%
    03:00 +10°C° 0 mm 2 mps 760 mmHg 63%
    04:00 +12°C° 0 mm 2 mps 759 mmHg 62%
    05:00 +12°C° 0 mm 2 mps 759 mmHg 61%
    06:00 +14°C° 0 mm 3 mps 759 mmHg 55%
    07:00 +17°C° 0 mm 3 mps 759 mmHg 49%
    08:00 +19°C° 0 mm 3 mps 758 mmHg 43%
    09:00 +20°C° 0 mm 3 mps 758 mmHg 40%
    10:00 +22°C° 0 mm 3 mps 757 mmHg 37%
    11:00 +23°C° 0 mm 4 mps 756 mmHg 34%
    12:00 +23°C° 0 mm 4 mps 756 mmHg 34%
    13:00 +25°C° 0 mm 4 mps 755 mmHg 34%
    14:00 +25°C° 0 mm 4 mps 754 mmHg 34%
    15:00 +25°C° 0 mm 4 mps 754 mmHg 36%
    16:00 +25°C° 0 mm 4 mps 753 mmHg 39%
    17:00 +23°C° 0 mm 4 mps 752 mmHg 42%
    18:00 +21°C° 0 mm 3 mps 752 mmHg 50%
    19:00 +19°C° 0 mm 3 mps 751 mmHg 58%
    20:00 +17°C° 0 mm 3 mps 751 mmHg 66%
    21:00 +17°C° 0 mm 3 mps 751 mmHg 69%
    22:00 +16°C° 0 mm 3 mps 750 mmHg 72%
    23:00 +14°C° 0 mm 3 mps 750 mmHg 75%

    30 May, Wednesday

    Time Temperature Precipitation Wind Pressure Humidity
    00:00 +14°C° 0 mm 3 mps 749 mmHg 75%
    01:00 +14°C° 0 mm 3 mps 749 mmHg 76%
    02:00 +13°C° 0 mm 3 mps 748 mmHg 76%
    03:00 +14°C° 0 mm 4 mps 748 mmHg 76%
    04:00 +15°C° 0 mm 4 mps 747 mmHg 75%
    05:00 +16°C° 0 mm 5 mps 746 mmHg 74%
    06:00 +17°C° 0 mm 5 mps 745 mmHg 68%
    07:00 +20°C° 0 mm 6 mps 745 mmHg 63%
    08:00 +21°C° 0 mm 7 mps 744 mmHg 57%
    09:00 +20°C° 0.3 mm 7 mps 744 mmHg 56%
    10:00 +20°C° 0.3 mm 7 mps 744 mmHg 55%
    11:00 +20°C° 0.3 mm 7 mps 744 mmHg 54%
    12:00 +18°C° 0 mm 7 mps 744 mmHg 52%
    13:00 +18°C° 0 mm 7 mps 744 mmHg 50%
    14:00 +18°C° 0 mm 7 mps 744 mmHg 48%
    15:00 +17°C° 0 mm 6 mps 744 mmHg 50%
    16:00 +17°C° 0 mm 6 mps 745 mmHg 53%
    17:00 +16°C° 0 mm 5 mps 745 mmHg 55%
    18:00 +15°C° 0 mm 4 mps 745 mmHg 60%
    19:00 +14°C° 0 mm 4 mps 745 mmHg 64%
    20:00 +13°C° 0 mm 3 mps 745 mmHg 69%
    21:00 +12°C° 0 mm 3 mps 745 mmHg 71%
    22:00 +12°C° 0 mm 3 mps 745 mmHg 74%
    23:00 +11°C° 0 mm 3 mps 745 mmHg 76%

    31 May, Thursday

    Time Temperature Precipitation Wind Pressure Humidity
    00:00 +10°C° 0.3 mm 3 mps 745 mmHg 80%
    01:00 +10°C° 0.3 mm 4 mps 744 mmHg 83%
    02:00 +8°C° 0.3 mm 4 mps 744 mmHg 86%
    03:00 +7°C° 0.8 mm 5 mps 745 mmHg 87%
    04:00 +6°C° 0.8 mm 5 mps 745 mmHg 88%
    05:00 +6°C° 0.8 mm 5 mps 745 mmHg 88%
    06:00 +6°C° 0 mm 5 mps 746 mmHg 83%
    07:00 +5°C° 0 mm 6 mps 746 mmHg 78%
    08:00 +7°C° 0 mm 6 mps 747 mmHg 72%
    09:00 +8°C° 0 mm 6 mps 748 mmHg 65%
    10:00 +10°C° 0 mm 5 mps 748 mmHg 58%
    11:00 +13°C° 0 mm 5 mps 749 mmHg 51%
    12:00 +13°C° 0 mm 5 mps 749 mmHg 50%
    13:00 +13°C° 0 mm 5 mps 749 mmHg 50%
    14:00 +14°C° 0 mm 5 mps 749 mmHg 49%
    15:00 +14°C° 0 mm 4 mps 750 mmHg 47%
    16:00 +14°C° 0 mm 4 mps 750 mmHg 45%
    17:00 +14°C° 0 mm 4 mps 750 mmHg 42%
    18:00 +13°C° 0 mm 4 mps 751 mmHg 45%
    19:00 +11°C° 0 mm 3 mps 751 mmHg 48%
    20:00 +10°C° 0 mm 3 mps 751 mmHg 51%
    21:00 +8°C° 0 mm 3 mps 752 mmHg 51%
    22:00 +7°C° 0 mm 3 mps 752 mmHg 52%
    23:00 +5°C° 0 mm 3 mps 753 mmHg 52%
    Show more